Total_Precipitation_Accumulation
0.09 0.21 0.43 0.80 1.75 2.02 1.68 0.94 0.63 0.50 0.49 0.59 0.57 0.55 0.74 1.02 1.32 1.86 1.34 0.70 0.42 0.38 0.50 0.69 0.90 0.95 0.91 0.86 0.99 1.16 1.20 1.31 1.49 1.70 1.95 1.94 1.93 1.93 1.89 1.93 2.09 2.19 2.17 2.07 1.94 1.80 1.63 1.45 1.29
0.16 0.39 0.63 1.04 1.92 2.25 1.76 0.91 0.60 0.45 0.49 0.61 0.69 0.64 0.59 0.67 0.53 0.63 0.91 0.89 0.48 0.39 0.47 0.61 0.74 0.83 0.84 0.86 1.00 1.15 1.24 1.33 1.44 1.52 1.70 1.78 1.83 1.85 1.91 1.96 1.91 1.90 1.81 1.75 1.69 1.55 1.42 1.29 1.10
0.28 0.47 0.68 1.12 1.35 1.45 1.25 0.77 0.55 0.48 0.50 0.65 0.71 0.54 0.55 0.75 0.58 0.62 0.75 0.70 0.48 0.41 0.48 0.63 0.65 0.73 0.82 0.88 1.05 1.13 1.22 1.35 1.39 1.42 1.53 1.67 1.73 1.76 1.86 1.86 1.75 1.70 1.67 1.63 1.54 1.44 1.30 1.12 0.99
0.32 0.48 0.60 0.76 0.69 0.61 0.57 0.51 0.49 0.53 0.57 0.56 0.62 0.63 0.58 0.69 0.62 0.62 0.66 0.58 0.46 0.40 0.44 0.63 0.66 0.68 0.78 0.90 1.00 1.03 1.10 1.22 1.28 1.39 1.45 1.53 1.57 1.63 1.71 1.63 1.57 1.55 1.54 1.47 1.48 1.34 1.13 0.97 0.88
0.26 0.44 0.62 0.56 0.41 0.42 0.47 0.48 0.53 0.60 0.59 0.67 0.78 0.83 0.90 0.80 0.66 0.77 0.86 0.74 0.55 0.46 0.47 0.60 0.69 0.71 0.79 0.84 0.89 0.94 1.01 1.12 1.19 1.36 1.47 1.49 1.46 1.52 1.52 1.47 1.43 1.42 1.38 1.27 1.26 1.15 1.03 0.96 0.91
0.27 0.44 0.43 0.35 0.32 0.36 0.44 0.46 0.49 0.55 0.61 0.82 0.87 0.81 0.99 0.96 0.78 0.84 0.89 1.05 0.86 0.55 0.48 0.51 0.67 0.72 0.78 0.82 0.85 0.94 1.01 1.12 1.18 1.21 1.31 1.28 1.24 1.28 1.27 1.33 1.34 1.32 1.23 1.13 1.13 1.02 0.97 0.93 0.91
0.25 0.40 0.31 0.25 0.24 0.28 0.29 0.39 0.51 0.54 0.65 0.79 0.71 0.70 1.00 1.18 0.97 0.92 0.92 0.97 0.83 0.59 0.58 0.56 0.57 0.60 0.72 0.93 1.00 0.97 0.97 1.08 1.15 1.10 1.15 1.18 1.22 1.22 1.20 1.23 1.25 1.20 1.09 1.03 1.06 0.89 0.82 0.77 0.80
0.13 0.21 0.20 0.19 0.17 0.21 0.20 0.25 0.41 0.56 0.63 0.60 0.64 0.85 1.23 1.19 0.83 0.83 0.92 0.96 0.87 0.76 0.73 0.74 0.72 0.66 0.67 0.80 0.97 1.01 0.99 1.05 1.06 1.10 1.18 1.26 1.32 1.28 1.23 1.09 1.12 1.13 1.08 1.10 1.11 0.98 0.84 0.80 0.88
0.08 0.13 0.14 0.13 0.11 0.17 0.18 0.23 0.33 0.49 0.52 0.59 0.78 0.86 0.94 0.80 0.66 0.82 1.02 1.19 1.25 1.06 0.96 0.92 0.80 0.73 0.75 0.74 0.84 0.96 1.01 1.07 1.16 1.25 1.33 1.51 1.66 1.56 1.57 1.36 1.44 1.40 1.33 1.35 1.40 1.28 1.08 0.97 0.96
0.07 0.09 0.08 0.06 0.07 0.13 0.15 0.23 0.39 0.57 0.67 0.89 1.21 1.26 0.99 0.85 0.79 0.90 1.16 1.33 1.59 1.36 1.05 1.00 0.89 0.86 0.83 0.74 0.87 1.09 1.05 1.17 1.35 1.52 1.61 1.91 2.10 2.07 1.68 1.88 2.03 1.94 1.94 1.85 1.85 1.91 1.59 1.23 1.18
0.04 0.04 0.03 0.04 0.04 0.06 0.12 0.19 0.29 0.47 0.85 1.33 1.40 1.21 0.99 1.08 1.10 1.11 1.43 1.54 1.49 1.35 1.34 1.28 1.13 1.13 1.11 1.16 1.07 1.22 1.38 1.58 1.59 1.56 1.79 2.20 2.07 1.93 1.83 1.99 2.37 2.48 2.51 2.42 2.41 2.40 2.00 1.87 2.04
0.03 0.02 0.01 0.03 0.04 0.06 0.07 0.11 0.21 0.44 0.92 1.07 1.03 0.96 0.94 1.15 1.22 1.33 1.65 1.75 1.79 1.66 1.89 1.96 1.68 1.71 1.61 1.44 1.35 1.34 1.43 1.62 1.79 2.01 2.12 2.28 2.40 2.36 2.25 2.31 2.49 2.60 2.74 3.13 2.97 2.81 2.55 2.45 2.30
0.03 0.02 0.01 0.02 0.05 0.08 0.07 0.12 0.29 0.62 0.82 0.71 0.60 0.83 0.91 1.25 1.58 1.79 2.04 1.94 2.24 2.38 2.62 2.79 2.38 2.27 2.14 2.14 2.08 1.80 1.89 2.01 2.16 2.35 2.52 2.56 2.74 2.81 2.81 2.71 2.65 2.45 2.51 2.85 3.08 2.91 2.89 2.79 2.60
0.04 0.03 0.03 0.03 0.05 0.06 0.12 0.23 0.40 0.68 0.63 0.57 0.72 1.13 1.35 1.33 1.63 2.03 2.20 2.32 2.69 2.90 3.07 3.23 3.11 3.11 2.95 2.70 2.73 2.70 2.35 2.44 2.46 2.52 2.54 2.67 2.87 3.21 3.35 3.22 3.07 2.68 2.57 2.63 2.88 2.93 3.13 3.06 2.88
0.05 0.06 0.09 0.10 0.10 0.09 0.15 0.45 0.58 0.69 0.58 0.61 0.84 1.20 1.54 1.48 1.64 1.93 2.14 2.66 3.40 3.76 3.68 3.74 3.70 3.96 3.85 3.42 3.10 2.83 2.65 2.63 2.82 2.86 2.85 2.90 3.11 3.43 3.39 3.21 2.86 2.55 2.53 2.73 2.72 2.71 2.95 2.78 2.65
0.07 0.11 0.24 0.22 0.15 0.14 0.23 0.75 0.83 0.72 0.86 0.93 1.11 1.28 1.55 1.60 1.64 1.89 2.37 3.16 4.02 4.57 4.51 4.31 3.89 4.28 4.31 4.00 3.78 3.44 3.18 3.24 3.22 2.94 3.00 2.93 3.08 2.99 3.04 2.74 2.43 2.46 2.61 2.73 2.89 2.77 2.83 2.86 2.93
0.14 0.17 0.23 0.28 0.20 0.17 0.29 0.91 0.92 0.69 0.96 1.22 1.12 1.26 1.48 1.65 1.80 1.93 2.50 3.35 4.19 4.99 5.21 5.19 5.09 4.84 4.59 4.40 4.26 4.07 3.91 3.61 3.24 3.10 3.14 2.83 2.52 2.32 2.51 2.44 2.37 2.36 2.56 2.60 2.41 2.77 3.00 3.01 3.03
0.19 0.20 0.23 0.30 0.23 0.22 0.36 0.70 0.78 0.79 0.96 1.13 1.12 1.13 1.23 1.51 1.94 2.04 2.36 3.11 4.05 4.93 5.49 5.69 5.76 5.42 4.91 4.47 4.14 4.06 3.84 3.58 3.31 3.10 3.06 2.64 2.39 2.15 2.40 2.35 2.31 2.32 2.50 2.60 2.69 2.98 3.10 2.79 2.72
0.14 0.17 0.26 0.31 0.24 0.25 0.43 0.61 0.72 0.83 1.07 1.20 1.23 1.17 1.22 1.51 1.97 2.15 2.45 2.95 3.75 4.50 5.20 5.34 5.65 5.15 4.51 4.01 3.65 3.54 3.35 3.06 2.96 2.84 2.77 2.62 2.37 2.27 2.50 2.34 2.41 2.25 2.32 2.34 2.42 2.67 2.80 2.42 2.51
0.12 0.18 0.27 0.27 0.19 0.23 0.45 0.75 0.89 0.96 0.95 1.01 1.06 1.13 1.23 1.59 2.04 2.39 2.92 3.31 3.34 3.90 4.61 4.66 4.39 4.19 3.76 3.41 3.26 3.09 3.04 2.71 2.54 2.43 2.51 2.29 2.13 2.16 2.19 2.33 2.19 2.14 2.29 2.28 2.32 2.54 2.52 2.22 2.42
0.15 0.18 0.22 0.21 0.20 0.29 0.51 0.93 1.21 1.11 0.83 0.75 0.81 0.91 1.04 1.38 1.90 2.32 2.74 3.18 3.16 3.55 3.64 3.28 3.14 3.24 3.21 3.04 2.95 2.81 2.81 2.62 2.38 2.23 2.24 2.06 1.86 1.90 1.94 1.94 2.01 2.12 1.92 2.07 2.26 2.40 2.48 2.37 2.30
0.12 0.10 0.10 0.11 0.19 0.36 0.53 1.13 1.52 1.28 0.96 0.78 0.81 0.98 1.04 1.15 1.36 1.64 1.98 2.40 2.60 2.70 2.63 2.61 2.59 2.66 2.87 2.86 2.65 2.48 2.21 2.14 2.11 2.01 2.03 2.02 1.78 1.71 1.74 1.74 1.90 1.98 1.92 2.17 1.89 2.01 2.29 2.51 2.32
0.08 0.06 0.07 0.13 0.18 0.37 0.59 0.94 1.39 1.36 1.28 1.09 0.94 0.99 0.94 0.97 1.05 1.18 1.28 1.49 1.78 2.04 2.12 2.12 2.42 2.54 2.56 2.54 2.50 2.55 2.29 2.13 2.09 2.22 2.41 2.33 2.00 1.68 1.53 1.63 1.80 1.91 1.96 2.05 1.98 2.09 2.04 2.12 2.18
0.06 0.07 0.15 0.30 0.43 0.79 0.79 0.84 1.24 1.19 1.10 1.09 0.94 0.80 0.75 0.78 0.82 1.00 1.04 1.07 1.20 1.36 1.51 1.65 1.96 2.19 2.25 2.20 2.21 2.28 2.32 2.30 2.12 2.08 2.15 2.09 1.94 1.74 1.56 1.59 1.81 1.88 1.94 1.97 2.01 2.01 1.91 2.00 2.12
0.08 0.12 0.38 0.78 1.10 1.28 0.85 0.79 1.01 0.90 0.90 1.01 0.79 0.55 0.51 0.60 0.65 0.83 0.82 0.86 0.97 1.00 1.11 1.35 1.58 1.75 1.85 1.92 2.00 2.06 2.27 2.24 2.03 1.83 1.87 1.86 1.71 1.63 1.62 1.58 1.86 1.98 1.97 1.94 2.02 2.01 1.98 2.08 2.17
0.08 0.09 0.24 0.43 0.60 0.82 0.85 1.18 1.11 0.75 0.72 0.64 0.48 0.37 0.35 0.50 0.58 0.63 0.58 0.60 0.75 0.82 0.91 1.09 1.25 1.35 1.47 1.68 1.88 1.88 2.03 1.91 1.80 1.93 1.82 1.70 1.51 1.55 1.77 1.88 1.91 1.91 1.94 1.94 2.18 2.04 2.06 2.12 2.15
0.07 0.06 0.09 0.13 0.22 0.52 0.93 1.29 1.09 0.71 0.65 0.51 0.37 0.31 0.35 0.41 0.54 0.53 0.47 0.49 0.52 0.58 0.67 0.86 1.16 1.24 1.28 1.36 1.57 1.68 1.68 1.71 1.82 2.00 1.93 1.75 1.67 1.57 1.77 1.94 2.04 1.97 1.94 2.03 2.24 2.21 2.25 2.36 2.25
0.07 0.07 0.08 0.11 0.21 0.40 0.80 1.19 1.30 1.06 0.77 0.53 0.44 0.42 0.49 0.50 0.63 0.67 0.53 0.50 0.51 0.50 0.60 0.69 0.86 1.10 1.29 1.28 1.27 1.30 1.56 1.63 1.76 1.86 1.80 1.77 1.73 1.73 1.82 1.82 1.86 1.85 1.83 1.95 2.28 2.29 2.33 2.51 2.45
0.09 0.09 0.10 0.12 0.18 0.28 0.62 0.90 0.83 0.84 0.67 0.52 0.52 0.61 0.50 0.50 0.57 0.65 0.49 0.47 0.47 0.49 0.55 0.65 0.79 1.07 1.27 1.19 1.21 1.33 1.50 1.60 1.65 1.81 1.80 1.75 1.75 1.81 1.80 1.80 1.82 1.77 1.68 1.77 1.97 2.08 2.27 2.43 2.47
0.10 0.11 0.12 0.16 0.18 0.19 0.32 0.56 0.48 0.58 0.59 0.69 0.71 0.66 0.59 0.59 0.60 0.64 0.57 0.63 0.65 0.68 0.71 0.78 0.88 1.04 1.15 1.17 1.25 1.32 1.43 1.52 1.59 1.65 1.73 1.79 1.78 1.87 1.89 1.88 1.85 1.70 1.68 1.77 1.87 2.00 2.18 2.31 2.39